• Em Portugal
  • Lista de países
  • Para 7 dias
  • Temperatura da água
  • Mapas de satélite
  • Mapa do tempo
  • Widgets de tempo
  • user-avatar
    Iniciar Sessão

    Previsão horária em Chernogryazka

    Hoje, 21 Agosto, Terça-feira

    Tempo Temperatura Precipitação Vento Pressão Humidade
    00:00 +18°C° 0 mm 3 m/s 740 mmHg 88%
    01:00 +17°C° 0 mm 3 m/s 740 mmHg 88%
    02:00 +17°C° 0 mm 3 m/s 740 mmHg 88%
    03:00 +17°C° 0 mm 3 m/s 739 mmHg 88%
    04:00 +17°C° 0 mm 3 m/s 739 mmHg 87%
    05:00 +17°C° 0 mm 4 m/s 739 mmHg 86%
    06:00 +19°C° 0 mm 4 m/s 739 mmHg 81%
    07:00 +21°C° 0 mm 5 m/s 738 mmHg 76%
    08:00 +22°C° 0 mm 6 m/s 738 mmHg 70%
    09:00 +23°C° 0,2 mm 7 m/s 738 mmHg 67%
    10:00 +26°C° 0,2 mm 7 m/s 738 mmHg 64%
    11:00 +27°C° 0,2 mm 7 m/s 737 mmHg 61%
    12:00 +26°C° 1,1 mm 7 m/s 737 mmHg 64%
    13:00 +26°C° 1,1 mm 7 m/s 737 mmHg 68%
    14:00 +24°C° 1,1 mm 7 m/s 737 mmHg 72%
    15:00 +23°C° 0,7 mm 6 m/s 736 mmHg 74%
    16:00 +22°C° 0,7 mm 5 m/s 736 mmHg 76%
    17:00 +22°C° 0,7 mm 5 m/s 736 mmHg 78%
    18:00 +20°C° 0,1 mm 4 m/s 737 mmHg 82%
    19:00 +19°C° 0,1 mm 4 m/s 737 mmHg 86%
    20:00 +17°C° 0,1 mm 3 m/s 737 mmHg 89%
    21:00 +16°C° 0 mm 3 m/s 738 mmHg 89%
    22:00 +16°C° 0 mm 3 m/s 738 mmHg 90%
    23:00 +14°C° 0 mm 3 m/s 738 mmHg 90%

    Amanhã, 22 Agosto, Quarta-feira

    Tempo Temperatura Precipitação Vento Pressão Humidade
    00:00 +13°C° 0 mm 3 m/s 739 mmHg 90%
    01:00 +13°C° 0 mm 2 m/s 739 mmHg 90%
    02:00 +13°C° 0 mm 2 m/s 739 mmHg 90%
    03:00 +12°C° 0 mm 2 m/s 740 mmHg 90%
    04:00 +12°C° 0 mm 2 m/s 740 mmHg 90%
    05:00 +10°C° 0 mm 2 m/s 740 mmHg 89%
    06:00 +12°C° 0 mm 3 m/s 741 mmHg 83%
    07:00 +13°C° 0 mm 3 m/s 741 mmHg 76%
    08:00 +15°C° 0 mm 4 m/s 742 mmHg 69%
    09:00 +17°C° 0 mm 4 m/s 742 mmHg 63%
    10:00 +18°C° 0 mm 4 m/s 742 mmHg 57%
    11:00 +19°C° 0 mm 5 m/s 743 mmHg 52%
    12:00 +19°C° 0 mm 5 m/s 743 mmHg 50%
    13:00 +20°C° 0 mm 5 m/s 743 mmHg 48%
    14:00 +20°C° 0 mm 5 m/s 743 mmHg 46%
    15:00 +20°C° 0 mm 4 m/s 743 mmHg 50%
    16:00 +19°C° 0 mm 3 m/s 743 mmHg 54%
    17:00 +19°C° 0 mm 3 m/s 743 mmHg 58%
    18:00 +17°C° 0 mm 3 m/s 744 mmHg 62%
    19:00 +15°C° 0 mm 2 m/s 744 mmHg 66%
    20:00 +14°C° 0 mm 2 m/s 745 mmHg 71%
    21:00 +13°C° 0 mm 2 m/s 745 mmHg 73%
    22:00 +12°C° 0 mm 2 m/s 746 mmHg 75%
    23:00 +10°C° 0 mm 2 m/s 746 mmHg 77%

    Depois de amanhã, 23 Agosto, Quinta-feira

    Tempo Temperatura Precipitação Vento Pressão Humidade
    00:00 +10°C° 0 mm 2 m/s 746 mmHg 78%
    01:00 +9°C° 0 mm 2 m/s 746 mmHg 78%
    02:00 +9°C° 0 mm 2 m/s 747 mmHg 79%
    03:00 +9°C° 0 mm 2 m/s 747 mmHg 80%
    04:00 +9°C° 0 mm 1 m/s 747 mmHg 81%
    05:00 +9°C° 0 mm 1 m/s 747 mmHg 82%
    06:00 +11°C° 0 mm 1 m/s 747 mmHg 76%
    07:00 +13°C° 0 mm 1 m/s 748 mmHg 69%
    08:00 +15°C° 0 mm 1 m/s 748 mmHg 62%
    09:00 +18°C° 0 mm 1 m/s 748 mmHg 57%
    10:00 +19°C° 0 mm 1 m/s 748 mmHg 51%
    11:00 +20°C° 0 mm 1 m/s 748 mmHg 46%
    12:00 +21°C° 0 mm 1 m/s 748 mmHg 44%
    13:00 +19°C° 0 mm 0 m/s 747 mmHg 43%
    14:00 +20°C° 0 mm 0 m/s 747 mmHg 42%
    15:00 +20°C° 0 mm 0 m/s 747 mmHg 44%
    16:00 +19°C° 0 mm 0 m/s 747 mmHg 47%
    17:00 +19°C° 0 mm 0 m/s 747 mmHg 49%
    18:00 +19°C° 0 mm 1 m/s 747 mmHg 53%
    19:00 +16°C° 0 mm 1 m/s 747 mmHg 56%
    20:00 +14°C° 0 mm 1 m/s 747 mmHg 60%
    21:00 +14°C° 0 mm 1 m/s 747 mmHg 61%
    22:00 +13°C° 0 mm 1 m/s 747 mmHg 63%
    23:00 +13°C° 0 mm 2 m/s 747 mmHg 64%

    24 Agosto, Sexta-feira

    Tempo Temperatura Precipitação Vento Pressão Humidade
    00:00 +12°C° 0 mm 2 m/s 747 mmHg 66%
    01:00 +12°C° 0 mm 2 m/s 747 mmHg 68%
    02:00 +12°C° 0 mm 2 m/s 747 mmHg 69%
    03:00 +10°C° 0 mm 2 m/s 747 mmHg 70%
    04:00 +10°C° 0 mm 2 m/s 747 mmHg 72%
    05:00 +10°C° 0 mm 2 m/s 747 mmHg 73%
    06:00 +13°C° 0 mm 2 m/s 747 mmHg 69%
    07:00 +15°C° 0 mm 2 m/s 747 mmHg 65%
    08:00 +17°C° 0 mm 3 m/s 747 mmHg 61%
    09:00 +18°C° 0 mm 3 m/s 746 mmHg 56%
    10:00 +20°C° 0 mm 3 m/s 746 mmHg 51%
    11:00 +21°C° 0 mm 3 m/s 746 mmHg 47%
    12:00 +22°C° 0 mm 3 m/s 746 mmHg 46%
    13:00 +22°C° 0 mm 3 m/s 745 mmHg 45%
    14:00 +24°C° 0 mm 3 m/s 745 mmHg 44%
    15:00 +22°C° 0 mm 3 m/s 745 mmHg 48%
    16:00 +23°C° 0 mm 2 m/s 744 mmHg 51%
    17:00 +23°C° 0 mm 2 m/s 744 mmHg 55%
    18:00 +20°C° 0 mm 2 m/s 744 mmHg 59%
    19:00 +18°C° 0 mm 2 m/s 744 mmHg 63%
    20:00 +16°C° 0 mm 2 m/s 744 mmHg 67%
    21:00 +15°C° 0 mm 2 m/s 744 mmHg 68%
    22:00 +15°C° 0 mm 2 m/s 744 mmHg 69%
    23:00 +13°C° 0 mm 3 m/s 744 mmHg 71%

    25 Agosto, Sábado

    Tempo Temperatura Precipitação Vento Pressão Humidade
    00:00 +13°C° 0 mm 3 m/s 743 mmHg 71%
    01:00 +13°C° 0 mm 3 m/s 743 mmHg 72%
    02:00 +12°C° 0 mm 3 m/s 743 mmHg 73%
    03:00 +12°C° 0 mm 3 m/s 743 mmHg 73%
    04:00 +12°C° 0 mm 3 m/s 743 mmHg 74%
    05:00 +12°C° 0 mm 3 m/s 743 mmHg 74%
    06:00 +14°C° 0 mm 3 m/s 743 mmHg 69%
    07:00 +16°C° 0 mm 3 m/s 743 mmHg 64%
    08:00 +18°C° 0 mm 4 m/s 743 mmHg 58%
    09:00 +20°C° 0 mm 4 m/s 743 mmHg 54%
    10:00 +22°C° 0 mm 4 m/s 743 mmHg 49%
    11:00 +23°C° 0 mm 5 m/s 742 mmHg 44%
    12:00 +25°C° 0 mm 5 m/s 742 mmHg 43%
    13:00 +25°C° 0 mm 5 m/s 742 mmHg 42%
    14:00 +25°C° 0 mm 4 m/s 742 mmHg 41%
    15:00 +25°C° 0 mm 4 m/s 741 mmHg 45%
    16:00 +24°C° 0 mm 3 m/s 741 mmHg 50%
    17:00 +24°C° 0 mm 3 m/s 740 mmHg 54%
    18:00 +21°C° 0 mm 3 m/s 740 mmHg 58%
    19:00 +19°C° 0 mm 3 m/s 740 mmHg 61%
    20:00 +17°C° 0 mm 3 m/s 740 mmHg 65%
    21:00 +16°C° 0 mm 3 m/s 740 mmHg 64%
    22:00 +16°C° 0 mm 3 m/s 740 mmHg 64%
    23:00 +14°C° 0 mm 3 m/s 740 mmHg 64%

    26 Agosto, Domingo

    Tempo Temperatura Precipitação Vento Pressão Humidade
    00:00 +14°C° 0 mm 3 m/s 740 mmHg 64%
    01:00 +14°C° 0 mm 3 m/s 740 mmHg 63%
    02:00 +13°C° 0 mm 3 m/s 740 mmHg 62%
    03:00 +13°C° 0 mm 3 m/s 740 mmHg 62%
    04:00 +13°C° 0 mm 3 m/s 739 mmHg 62%
    05:00 +12°C° 0 mm 3 m/s 739 mmHg 61%
    06:00 +14°C° 0 mm 3 m/s 739 mmHg 59%
    07:00 +17°C° 0 mm 4 m/s 739 mmHg 56%
    08:00 +19°C° 0 mm 4 m/s 739 mmHg 53%
    09:00 +21°C° 0 mm 4 m/s 739 mmHg 49%
    10:00 +23°C° 0 mm 4 m/s 739 mmHg 45%
    11:00 +26°C° 0 mm 5 m/s 739 mmHg 41%
    12:00 +26°C° 0 mm 5 m/s 739 mmHg 40%
    13:00 +27°C° 0 mm 5 m/s 739 mmHg 39%
    14:00 +27°C° 0 mm 5 m/s 739 mmHg 37%
    15:00 +26°C° 0 mm 4 m/s 739 mmHg 42%
    16:00 +25°C° 0 mm 3 m/s 739 mmHg 47%
    17:00 +25°C° 0 mm 3 m/s 739 mmHg 52%
    18:00 +24°C° 0 mm 3 m/s 739 mmHg 51%
    19:00 +21°C° 0 mm 3 m/s 739 mmHg 51%
    20:00 +20°C° 0 mm 3 m/s 739 mmHg 50%
    21:00 +20°C° 0 mm 3 m/s 739 mmHg 50%
    22:00 +20°C° 0 mm 3 m/s 739 mmHg 49%
    23:00 +19°C° 0 mm 3 m/s 739 mmHg 48%
    Mostrar mais